Weather History for KSBN - December, 2013

Change the Weather History Date:

Monday, December 16, 2013

  Actual Average Record
Temperature  
Mean Temperature 13 °F 28 °F  
Max Temperature 20 °F 35 °F 65 °F (1984)
Min Temperature 6 °F 22 °F -16 °F (1951)
Degree Days  
Heating Degree Days 52 37  
Month to date heating degree days 634 546  
Since 1 July heating degree days 1923 1815  
Cooling Degree Days 0 0  
Month to date cooling degree days 0 0  
Year to date cooling degree days 828 773  
Moisture  
Dew Point 10 °F    
Average Humidity 77    
Maximum Humidity 91    
Minimum Humidity 62    
Precipitation  
Precipitation 0.08 in 0.08 in 0.41 in (1994)
Month to date precipitation 0.84 1.40  
Year to date precipitation 38.86 36.79  
Snow  
Snow 0.00 in 0.60 in 7.60 in (1953)
Month to date snowfall 6.7 7.9  
Since 1 July snowfall 15.9 13.1  
Snow Depth -    
Sea Level Pressure  
Sea Level Pressure 30.09 in    
Wind  
Wind Speed 5 mph (South)    
Max Wind Speed 13 mph    
Max Gust Speed 15 mph    
Visibility 7 miles    
Events Snow    
T = Trace of Precipitation, MM = Missing Value Source: NWS Daily Summary

Daily Weather History Graph

Daily Weather History Graph

Search for Another Location

Airport or City:

Trip Planner

Search our weather history database for the weather conditions in past years. The results will help you decide how hot, cold, wet, or windy it might be!

Date:

Astronomy

Dec. 16, 2013 Rise Set
Actual Time 8:06 AM EST 5:15 PM EST
Civil Twilight 7:34 AM EST 5:47 PM EST
Nautical Twilight 6:59 AM EST 6:22 PM EST
Astronomical Twilight 6:25 AM EST 6:56 PM EST
Moon 5:06 PM EST (12/16) 7:13 AM EST (12/16)
Length of Visible Light 10h 12m
Length of Day
9h 09m
Full, 100% of the Moon is Illuminated
Dec 16
Full
Dec 17
Full
Dec 25
Last Quarter
Jan 1
New
Jan 7
First Quarter

Hourly Weather History & Observations

Time (EST) Temp. Windchill Dew Point Humidity Pressure Visibility Wind Dir Wind Speed Gust Speed Precip Events Conditions
12:54 AM 9.0 °F -3.2 °F 1.9 °F 73% 30.13 in 10.0 mi SW 8.1 mph - N/A   Overcast
1:36 AM 10.4 °F -1.5 °F 3.2 °F 73% 30.08 in 10.0 mi SW 8.1 mph - N/A   Overcast
1:54 AM 10.0 °F -3.7 °F 3.0 °F 73% 30.12 in 10.0 mi SSW 10.4 mph - N/A   Overcast
2:54 AM 12.0 °F 0.5 °F 5.0 °F 73% 30.14 in 10.0 mi WSW 8.1 mph - N/A   Overcast
3:54 AM 12.0 °F 4.1 °F 5.0 °F 73% 30.14 in 10.0 mi SW 4.6 mph - N/A   Overcast
4:54 AM 12.0 °F 5.9 °F 6.1 °F 77% 30.14 in 10.0 mi SSW 3.5 mph - N/A   Overcast
5:54 AM 10.0 °F - 5.0 °F 80% 30.14 in 10.0 mi Calm Calm - N/A   Clear
6:54 AM 9.0 °F 2.4 °F 3.9 °F 80% 30.15 in 8.0 mi SW 3.5 mph - N/A   Clear
7:54 AM 8.1 °F - 3.0 °F 80% 30.16 in 6.0 mi Calm Calm - N/A   Haze
8:54 AM 9.0 °F 2.4 °F 6.1 °F 88% 30.16 in 5.0 mi South 3.5 mph - N/A   Clear
9:54 AM 12.9 °F - 8.1 °F 81% 30.19 in 6.0 mi Calm Calm - N/A   Haze
10:54 AM 15.1 °F 9.4 °F 9.0 °F 77% 30.19 in 10.0 mi South 3.5 mph - N/A   Mostly Cloudy
11:54 AM 17.1 °F - 10.0 °F 74% 30.17 in 10.0 mi Calm Calm - N/A   Overcast
12:37 PM 19.4 °F 10.4 °F 10.4 °F 68% 30.10 in 10.0 mi SE 6.9 mph - N/A   Overcast
12:54 PM 19.9 °F 10.1 °F 10.0 °F 65% 30.14 in 10.0 mi SSE 8.1 mph - 0.00 in   Overcast
12:56 PM 19.4 °F 8.6 °F 10.4 °F 68% 30.09 in 10.0 mi SSE 9.2 mph - 0.00 in   Overcast
1:54 PM 19.9 °F 9.3 °F 9.0 °F 62% 30.11 in 10.0 mi SE 9.2 mph - 0.00 in   Overcast
2:54 PM 19.9 °F 7.9 °F 9.0 °F 62% 30.07 in 10.0 mi SE 11.5 mph - N/A   Overcast
3:54 PM 19.9 °F 8.6 °F 10.0 °F 65% 30.07 in 10.0 mi SSE 10.4 mph - N/A   Overcast
4:54 PM 19.9 °F 11.1 °F 10.9 °F 68% 30.08 in 10.0 mi SE 6.9 mph - N/A   Overcast
5:38 PM 19.4 °F 11.5 °F 12.2 °F 74% 30.04 in 1.5 mi ESE 5.8 mph - 0.00 in Snow Light Snow
5:47 PM 19.4 °F 10.4 °F 12.2 °F 74% 30.03 in 1.5 mi SE 6.9 mph - 0.00 in Snow Light Snow
5:54 PM 19.9 °F 11.1 °F 12.9 °F 74% 30.08 in 1.5 mi SE 6.9 mph - 0.01 in Snow Light Snow
6:54 PM 19.9 °F 14.9 °F 15.1 °F 81% 30.08 in 1.0 mi SE 3.5 mph - 0.02 in Snow Light Snow
7:54 PM 19.9 °F 14.9 °F 16.0 °F 85% 30.09 in 1.2 mi South 3.5 mph - 0.03 in Snow Light Snow
8:31 PM 19.4 °F 12.8 °F 15.8 °F 86% 30.02 in 1.5 mi SSE 4.6 mph - 0.01 in Snow Light Snow
8:41 PM 19.4 °F 11.5 °F 15.8 °F 86% 30.02 in 2.5 mi SSE 5.8 mph - 0.01 in Snow Light Snow
8:50 PM 19.4 °F 11.5 °F 15.8 °F 86% 30.02 in 1.0 mi SSE 5.8 mph - 0.02 in Snow Light Snow
8:54 PM 19.9 °F 12.1 °F 15.1 °F 81% 30.07 in 1.0 mi SSE 5.8 mph - 0.02 in Snow Light Snow
8:59 PM 19.4 °F 12.8 °F 15.8 °F 86% 30.02 in 2.0 mi SSE 4.6 mph - 0.00 in Snow Light Snow
9:15 PM 19.4 °F 11.5 °F 15.8 °F 86% 30.01 in 2.0 mi SSE 5.8 mph - 0.00 in Snow Light Snow
9:24 PM 19.4 °F 12.8 °F 15.8 °F 86% 30.01 in 5.0 mi South 4.6 mph - 0.00 in   Haze
9:54 PM 19.0 °F 11.1 °F 15.1 °F 85% 30.05 in 5.0 mi South 5.8 mph - 0.00 in Snow Light Snow
10:36 PM 19.4 °F 10.4 °F 15.8 °F 86% 30.00 in 9.0 mi South 6.9 mph - 0.00 in   Overcast
10:54 PM 19.0 °F 11.1 °F 15.1 °F 85% 30.05 in 7.0 mi South 5.8 mph - 0.00 in   Overcast
11:54 PM 19.0 °F 12.3 °F 15.1 °F 85% 30.06 in 7.0 mi WSW 4.6 mph - N/A   Overcast